Year,Month,Day,Hour,Minute,Value (Times are PST for temperature in C)
2018,07,17,00,00,23.40
2018,07,17,00,01,23.40
2018,07,17,00,02,23.40
2018,07,17,00,03,23.40
2018,07,17,00,04,23.40
2018,07,17,00,05,23.40
2018,07,17,00,06,23.40
2018,07,17,00,07,23.40
2018,07,17,00,08,23.50
2018,07,17,00,09,23.50
2018,07,17,00,10,23.50
2018,07,17,00,11,23.60
2018,07,17,00,12,23.60
2018,07,17,00,13,23.60
2018,07,17,00,14,23.60
2018,07,17,00,15,23.60
2018,07,17,00,16,23.60
2018,07,17,00,17,23.50
2018,07,17,00,18,23.50
2018,07,17,00,19,23.40
2018,07,17,00,20,23.40
2018,07,17,00,21,23.30
2018,07,17,00,22,23.30
2018,07,17,00,23,23.20
2018,07,17,00,24,23.20
2018,07,17,00,25,23.10
2018,07,17,00,26,23.10
2018,07,17,00,27,23.00
2018,07,17,00,28,22.90
2018,07,17,00,29,22.90
2018,07,17,00,30,22.80
2018,07,17,00,31,22.80
2018,07,17,00,32,22.70
2018,07,17,00,33,22.70
2018,07,17,00,34,22.60
2018,07,17,00,35,22.60
2018,07,17,00,36,22.50
2018,07,17,00,37,22.50
2018,07,17,00,38,22.40
2018,07,17,00,39,22.40
2018,07,17,00,40,22.40
2018,07,17,00,41,22.40
2018,07,17,00,42,22.30
2018,07,17,00,43,22.30
2018,07,17,00,44,22.30
2018,07,17,00,45,22.30
2018,07,17,00,46,22.30
2018,07,17,00,47,22.20
2018,07,17,00,48,22.20
2018,07,17,00,49,22.20
2018,07,17,00,50,22.10
2018,07,17,00,51,22.10
2018,07,17,00,52,22.00
2018,07,17,00,53,22.00
2018,07,17,00,54,21.90
2018,07,17,00,55,21.90
2018,07,17,00,56,21.90
2018,07,17,00,57,21.90
2018,07,17,00,58,21.80
2018,07,17,00,59,21.80
2018,07,17,01,00,21.80
2018,07,17,01,01,21.70
2018,07,17,01,02,21.70
2018,07,17,01,03,21.60
2018,07,17,01,04,21.60
2018,07,17,01,05,21.60
2018,07,17,01,06,21.60
2018,07,17,01,07,21.50
2018,07,17,01,08,21.50
2018,07,17,01,09,21.50
2018,07,17,01,10,21.40
2018,07,17,01,11,21.40
2018,07,17,01,12,21.30
2018,07,17,01,13,21.30
2018,07,17,01,14,21.30
2018,07,17,01,15,21.20
2018,07,17,01,16,21.20
2018,07,17,01,17,21.10
2018,07,17,01,18,21.10
2018,07,17,01,19,21.10
2018,07,17,01,20,21.00
2018,07,17,01,21,21.00
2018,07,17,01,22,20.90
2018,07,17,01,23,20.90
2018,07,17,01,24,20.90
2018,07,17,01,25,20.80
2018,07,17,01,26,20.80
2018,07,17,01,27,20.80
2018,07,17,01,28,20.70
2018,07,17,01,29,20.70
2018,07,17,01,30,20.70
2018,07,17,01,31,20.70
2018,07,17,01,32,20.70
2018,07,17,01,33,20.60
2018,07,17,01,34,20.60
2018,07,17,01,35,20.60
2018,07,17,01,36,20.60
2018,07,17,01,37,20.60
2018,07,17,01,38,20.50
2018,07,17,01,39,20.50
2018,07,17,01,40,20.40
2018,07,17,01,41,20.40
2018,07,17,01,42,20.40
2018,07,17,01,43,20.30
2018,07,17,01,44,20.30
2018,07,17,01,45,20.30
2018,07,17,01,46,20.20
2018,07,17,01,47,20.20
2018,07,17,01,48,20.10
2018,07,17,01,49,20.10
2018,07,17,01,50,20.10
2018,07,17,01,51,20.00
2018,07,17,01,52,20.00
2018,07,17,01,53,19.90
2018,07,17,01,54,19.90
2018,07,17,01,55,19.90
2018,07,17,01,56,19.80
2018,07,17,01,57,19.80
2018,07,17,01,58,19.70
2018,07,17,01,59,19.70
2018,07,17,02,00,19.70
2018,07,17,02,01,19.60
2018,07,17,02,02,19.60
2018,07,17,02,03,19.60
2018,07,17,02,04,19.50
2018,07,17,02,05,19.40
2018,07,17,02,06,19.30
2018,07,17,02,07,19.30
2018,07,17,02,08,19.20
2018,07,17,02,09,19.20
2018,07,17,02,10,19.20
2018,07,17,02,11,19.20
2018,07,17,02,12,19.10
2018,07,17,02,13,19.10
2018,07,17,02,14,19.20
2018,07,17,02,15,19.20
2018,07,17,02,16,19.20
2018,07,17,02,17,19.20
2018,07,17,02,18,19.10
2018,07,17,02,19,19.10
2018,07,17,02,20,19.10
2018,07,17,02,21,19.10
2018,07,17,02,22,19.00
2018,07,17,02,23,19.00
2018,07,17,02,24,19.00
2018,07,17,02,25,19.00
2018,07,17,02,26,19.00
2018,07,17,02,27,19.00
2018,07,17,02,28,19.00
2018,07,17,02,29,18.90
2018,07,17,02,30,18.90
2018,07,17,02,31,18.90
2018,07,17,02,32,18.90
2018,07,17,02,33,18.90
2018,07,17,02,34,18.90
2018,07,17,02,35,18.90
2018,07,17,02,36,18.90
2018,07,17,02,37,18.90
2018,07,17,02,38,18.90
2018,07,17,02,39,18.90
2018,07,17,02,40,18.90
2018,07,17,02,41,18.90
2018,07,17,02,42,18.90
2018,07,17,02,43,18.80
2018,07,17,02,44,18.80
2018,07,17,02,45,18.80
2018,07,17,02,46,18.80
2018,07,17,02,47,18.80
2018,07,17,02,48,18.80
2018,07,17,02,49,18.80
2018,07,17,02,50,18.70
2018,07,17,02,51,18.70
2018,07,17,02,52,18.70
2018,07,17,02,53,18.70
2018,07,17,02,54,18.70
2018,07,17,02,55,18.60
2018,07,17,02,56,18.60
2018,07,17,02,57,18.60
2018,07,17,02,58,18.60
2018,07,17,02,59,18.60
2018,07,17,03,00,18.60
2018,07,17,03,01,18.50
2018,07,17,03,02,18.50
2018,07,17,03,03,18.50
2018,07,17,03,04,18.50
2018,07,17,03,05,18.50
2018,07,17,03,06,18.40
2018,07,17,03,07,18.40
2018,07,17,03,08,18.40
2018,07,17,03,09,18.40
2018,07,17,03,10,18.40
2018,07,17,03,11,18.40
2018,07,17,03,12,18.40
2018,07,17,03,13,18.40
2018,07,17,03,14,18.40
2018,07,17,03,15,18.40
2018,07,17,03,16,18.40
2018,07,17,03,17,18.60
2018,07,17,03,18,18.70
2018,07,17,03,19,18.80
2018,07,17,03,20,18.80
2018,07,17,03,21,18.80
2018,07,17,03,22,18.80
2018,07,17,03,23,18.70
2018,07,17,03,24,18.70
2018,07,17,03,25,18.70
2018,07,17,03,26,18.70
2018,07,17,03,27,18.70
2018,07,17,03,28,18.70
2018,07,17,03,29,18.70
2018,07,17,03,30,18.60
2018,07,17,03,31,18.60
2018,07,17,03,32,18.60
2018,07,17,03,33,18.60
2018,07,17,03,34,18.60
2018,07,17,03,35,18.50
2018,07,17,03,36,18.50
2018,07,17,03,37,18.50
2018,07,17,03,38,18.50
2018,07,17,03,39,18.40
2018,07,17,03,40,18.40
2018,07,17,03,41,18.40
2018,07,17,03,42,18.40
2018,07,17,03,43,18.40
2018,07,17,03,44,18.30
2018,07,17,03,45,18.30
2018,07,17,03,46,18.30
2018,07,17,03,47,18.20
2018,07,17,03,48,18.20
2018,07,17,03,49,18.20
2018,07,17,03,50,18.20
2018,07,17,03,51,18.10
2018,07,17,03,52,18.10
2018,07,17,03,53,18.10
2018,07,17,03,54,18.00
2018,07,17,03,55,18.00
2018,07,17,03,56,18.00
2018,07,17,03,57,18.00
2018,07,17,03,58,18.00
2018,07,17,03,59,18.00
2018,07,17,04,00,18.00
2018,07,17,04,01,18.00
2018,07,17,04,02,17.90
2018,07,17,04,03,17.90
2018,07,17,04,04,18.00
2018,07,17,04,05,18.00
2018,07,17,04,06,18.00
2018,07,17,04,07,18.10
2018,07,17,04,08,18.10
2018,07,17,04,09,18.10
2018,07,17,04,10,18.10
2018,07,17,04,11,18.20
2018,07,17,04,12,18.20
2018,07,17,04,13,18.20
2018,07,17,04,14,18.20
2018,07,17,04,15,18.20
2018,07,17,04,16,18.20
2018,07,17,04,17,18.20
2018,07,17,04,18,18.20
2018,07,17,04,19,18.10
2018,07,17,04,20,18.10
2018,07,17,04,21,18.00
2018,07,17,04,22,18.00
2018,07,17,04,23,17.90
2018,07,17,04,24,17.90
2018,07,17,04,25,17.90
2018,07,17,04,26,17.90
2018,07,17,04,27,17.80
2018,07,17,04,28,17.80
2018,07,17,04,29,17.80
2018,07,17,04,30,17.80
2018,07,17,04,31,17.80
2018,07,17,04,32,17.80
2018,07,17,04,33,17.70
2018,07,17,04,34,17.70
2018,07,17,04,35,17.70
2018,07,17,04,36,17.70
2018,07,17,04,37,17.60
2018,07,17,04,38,17.60
2018,07,17,04,39,17.60
2018,07,17,04,40,17.50
2018,07,17,04,41,17.50
2018,07,17,04,42,17.50
2018,07,17,04,43,17.40
2018,07,17,04,44,17.40
2018,07,17,04,45,17.40
2018,07,17,04,46,17.40
2018,07,17,04,47,17.40
2018,07,17,04,48,17.30
2018,07,17,04,49,17.30
2018,07,17,04,50,17.30
2018,07,17,04,51,17.30
2018,07,17,04,52,17.30
2018,07,17,04,53,17.30
2018,07,17,04,54,17.20
2018,07,17,04,55,17.20
2018,07,17,04,56,17.20
2018,07,17,04,57,17.20
2018,07,17,04,58,17.20
2018,07,17,04,59,17.20
2018,07,17,05,00,17.20
2018,07,17,05,01,17.30
2018,07,17,05,02,17.30
2018,07,17,05,03,17.40
2018,07,17,05,04,17.40
2018,07,17,05,05,17.40
2018,07,17,05,06,17.40
2018,07,17,05,07,17.40
2018,07,17,05,08,17.40
2018,07,17,05,09,17.50
2018,07,17,05,10,17.50
2018,07,17,05,11,17.50
2018,07,17,05,12,17.50
2018,07,17,05,13,17.50
2018,07,17,05,14,17.50
2018,07,17,05,15,17.50
2018,07,17,05,16,17.50
2018,07,17,05,17,17.50
2018,07,17,05,18,17.50
2018,07,17,05,19,17.50
2018,07,17,05,20,17.50
2018,07,17,05,21,17.50
2018,07,17,05,22,17.50
2018,07,17,05,23,17.50
2018,07,17,05,24,17.50
2018,07,17,05,25,17.50
2018,07,17,05,26,17.50
2018,07,17,05,27,17.50
2018,07,17,05,28,17.50
2018,07,17,05,29,17.40
2018,07,17,05,30,17.50
2018,07,17,05,31,17.50
2018,07,17,05,32,17.50
2018,07,17,05,33,17.50
2018,07,17,05,34,17.40
2018,07,17,05,35,17.40
2018,07,17,05,36,17.40
2018,07,17,05,37,17.30
2018,07,17,05,38,17.30
2018,07,17,05,39,17.30
2018,07,17,05,40,17.30
2018,07,17,05,41,17.20
2018,07,17,05,42,17.20
2018,07,17,05,43,17.20
2018,07,17,05,44,17.10
2018,07,17,05,45,17.10
2018,07,17,05,46,17.00
2018,07,17,05,47,17.00
2018,07,17,05,48,17.00
2018,07,17,05,49,16.90
2018,07,17,05,50,16.90
2018,07,17,05,51,16.90
2018,07,17,05,52,16.90
2018,07,17,05,53,16.90
2018,07,17,05,54,16.90
2018,07,17,05,55,17.00
2018,07,17,05,56,17.00
2018,07,17,05,57,17.00
2018,07,17,05,58,17.00
2018,07,17,05,59,17.00
2018,07,17,06,00,16.90
2018,07,17,06,01,16.90
2018,07,17,06,02,16.90
2018,07,17,06,03,16.90
2018,07,17,06,04,17.00
2018,07,17,06,05,17.00
2018,07,17,06,06,17.00
2018,07,17,06,07,17.00
2018,07,17,06,08,17.00
2018,07,17,06,09,17.00
2018,07,17,06,10,17.00
2018,07,17,06,11,17.00
2018,07,17,06,12,17.00
2018,07,17,06,13,17.00
2018,07,17,06,14,17.00
2018,07,17,06,15,17.00
2018,07,17,06,16,17.10
2018,07,17,06,17,17.10
2018,07,17,06,18,17.10
2018,07,17,06,19,17.20
2018,07,17,06,20,17.20
2018,07,17,06,21,17.20
2018,07,17,06,22,17.30
2018,07,17,06,23,17.30
2018,07,17,06,24,17.40
2018,07,17,06,25,17.50
2018,07,17,06,26,17.50
2018,07,17,06,27,17.60
2018,07,17,06,28,17.60
2018,07,17,06,29,17.70
2018,07,17,06,30,17.70
2018,07,17,06,31,17.80
2018,07,17,06,32,17.80
2018,07,17,06,33,17.90
2018,07,17,06,34,17.90
2018,07,17,06,35,18.00
2018,07,17,06,36,18.10
2018,07,17,06,37,18.20
2018,07,17,06,38,18.30
2018,07,17,06,39,18.40
2018,07,17,06,40,18.50
2018,07,17,06,41,18.60
2018,07,17,06,42,18.60
2018,07,17,06,43,18.70
2018,07,17,06,44,18.80
2018,07,17,06,45,18.80
2018,07,17,06,46,18.90
2018,07,17,06,47,19.00
2018,07,17,06,48,19.00
2018,07,17,06,49,19.10
2018,07,17,06,50,19.10
2018,07,17,06,51,19.20
2018,07,17,06,52,19.20
2018,07,17,06,53,19.30
2018,07,17,06,54,19.30
2018,07,17,06,55,19.30
2018,07,17,06,56,19.40
2018,07,17,06,57,19.40
2018,07,17,06,58,19.50
2018,07,17,06,59,19.50
2018,07,17,07,00,19.50
2018,07,17,07,01,19.60
2018,07,17,07,02,19.60
2018,07,17,07,03,19.60
2018,07,17,07,04,19.60
2018,07,17,07,05,19.60
2018,07,17,07,06,19.60
2018,07,17,07,07,19.70
2018,07,17,07,08,19.70
2018,07,17,07,09,19.70
2018,07,17,07,10,19.70
2018,07,17,07,11,19.70
2018,07,17,07,12,19.80
2018,07,17,07,13,19.80
2018,07,17,07,14,19.90
2018,07,17,07,15,19.90
2018,07,17,07,16,20.00
2018,07,17,07,17,20.10
2018,07,17,07,18,20.20
2018,07,17,07,19,20.20
2018,07,17,07,20,20.30
2018,07,17,07,21,20.30
2018,07,17,07,22,20.40
2018,07,17,07,23,20.40
2018,07,17,07,24,20.50
2018,07,17,07,25,20.60
2018,07,17,07,26,20.60
2018,07,17,07,27,20.70
2018,07,17,07,28,20.70
2018,07,17,07,29,20.80
2018,07,17,07,30,20.80
2018,07,17,07,31,20.90
2018,07,17,07,32,21.00
2018,07,17,07,33,21.10
2018,07,17,07,34,21.20
2018,07,17,07,35,21.20
2018,07,17,07,36,21.10
2018,07,17,07,37,21.00
2018,07,17,07,38,20.90
2018,07,17,07,39,20.90
2018,07,17,07,40,20.90
2018,07,17,07,41,20.80
2018,07,17,07,42,20.70
2018,07,17,07,43,20.60
2018,07,17,07,44,20.50
2018,07,17,07,45,20.40
2018,07,17,07,46,20.30
2018,07,17,07,47,20.30
2018,07,17,07,48,20.30
2018,07,17,07,49,20.20
2018,07,17,07,50,20.20
2018,07,17,07,51,20.20
2018,07,17,07,52,20.10
2018,07,17,07,53,20.10
2018,07,17,07,54,20.10
2018,07,17,07,55,20.10
2018,07,17,07,56,20.20
2018,07,17,07,57,20.20
2018,07,17,07,58,20.30
2018,07,17,07,59,20.30
2018,07,17,08,00,20.30
2018,07,17,08,01,20.30
2018,07,17,08,02,20.20
2018,07,17,08,03,20.20
2018,07,17,08,04,20.20
2018,07,17,08,05,20.20
2018,07,17,08,06,20.20
2018,07,17,08,07,20.20
2018,07,17,08,08,20.20
2018,07,17,08,09,20.20
2018,07,17,08,10,20.20
2018,07,17,08,11,20.30
2018,07,17,08,12,20.40
2018,07,17,08,13,20.40
2018,07,17,08,14,20.40
2018,07,17,08,15,20.50
2018,07,17,08,16,20.50
2018,07,17,08,17,20.50
2018,07,17,08,18,20.50
2018,07,17,08,19,20.50
2018,07,17,08,20,20.50
2018,07,17,08,21,20.60
2018,07,17,08,22,20.60
2018,07,17,08,23,20.70
2018,07,17,08,24,20.70
2018,07,17,08,25,20.70
2018,07,17,08,26,20.70
2018,07,17,08,27,20.70
2018,07,17,08,28,20.80
2018,07,17,08,29,20.80
2018,07,17,08,30,20.80
2018,07,17,08,31,20.80
2018,07,17,08,32,20.80
2018,07,17,08,33,20.80
2018,07,17,08,34,20.90
2018,07,17,08,35,20.90
2018,07,17,08,36,20.90
2018,07,17,08,37,20.90
2018,07,17,08,38,20.90
2018,07,17,08,39,20.80
2018,07,17,08,40,20.80
2018,07,17,08,41,20.80
2018,07,17,08,42,20.80
2018,07,17,08,43,20.80
2018,07,17,08,44,20.80
2018,07,17,08,45,20.70
2018,07,17,08,46,20.60
2018,07,17,08,47,20.60
2018,07,17,08,48,20.60
2018,07,17,08,49,20.50
2018,07,17,08,50,20.50
2018,07,17,08,51,20.50
2018,07,17,08,52,20.50
2018,07,17,08,53,20.50
2018,07,17,08,54,20.50
2018,07,17,08,55,20.50
2018,07,17,08,56,20.50
2018,07,17,08,57,20.60
2018,07,17,08,58,20.60
2018,07,17,08,59,20.60
2018,07,17,09,00,20.60
2018,07,17,09,01,20.60
2018,07,17,09,02,20.70
2018,07,17,09,03,20.70
2018,07,17,09,04,20.70
2018,07,17,09,05,20.70
2018,07,17,09,06,20.80
2018,07,17,09,07,20.80
2018,07,17,09,08,20.80
2018,07,17,09,09,20.90
2018,07,17,09,10,20.90
2018,07,17,09,11,21.00
2018,07,17,09,12,21.10
2018,07,17,09,13,21.20
2018,07,17,09,14,21.30
2018,07,17,09,15,21.30
2018,07,17,09,16,21.40
2018,07,17,09,17,21.40
2018,07,17,09,18,21.50
2018,07,17,09,19,21.40
2018,07,17,09,20,21.40
2018,07,17,09,21,21.40
2018,07,17,09,22,21.50
2018,07,17,09,23,21.60
2018,07,17,09,24,21.60
2018,07,17,09,25,21.70
2018,07,17,09,26,21.80
2018,07,17,09,27,21.80
2018,07,17,09,28,21.80
2018,07,17,09,29,21.70
2018,07,17,09,30,21.70
2018,07,17,09,31,21.80
2018,07,17,09,32,21.80
2018,07,17,09,33,21.90
2018,07,17,09,34,21.90
2018,07,17,09,35,22.00
2018,07,17,09,36,22.10
2018,07,17,09,37,22.10
2018,07,17,09,38,22.10
2018,07,17,09,39,22.10
2018,07,17,09,40,22.10
2018,07,17,09,41,22.20
2018,07,17,09,42,22.20
2018,07,17,09,43,22.20
2018,07,17,09,44,22.20
2018,07,17,09,45,22.20
2018,07,17,09,46,22.20
2018,07,17,09,47,22.20
2018,07,17,09,48,22.10
2018,07,17,09,49,22.10
2018,07,17,09,50,22.10
2018,07,17,09,51,22.10
2018,07,17,09,52,22.00
2018,07,17,09,53,22.00
2018,07,17,09,54,22.10
2018,07,17,09,55,22.10
2018,07,17,09,56,22.20
2018,07,17,09,57,22.30
2018,07,17,09,58,22.30
2018,07,17,09,59,22.30
2018,07,17,10,00,22.30
2018,07,17,10,01,22.40
2018,07,17,10,02,22.40
2018,07,17,10,03,22.40
2018,07,17,10,04,22.50
2018,07,17,10,05,22.50
2018,07,17,10,06,22.50
2018,07,17,10,07,22.50
2018,07,17,10,08,22.50
2018,07,17,10,09,22.50
2018,07,17,10,10,22.60
2018,07,17,10,11,22.60
2018,07,17,10,12,22.50
2018,07,17,10,13,22.40
2018,07,17,10,14,22.40
2018,07,17,10,15,22.40
2018,07,17,10,16,22.40
2018,07,17,10,17,22.40
2018,07,17,10,18,22.40
2018,07,17,10,19,22.40
2018,07,17,10,20,22.40
2018,07,17,10,21,22.40
2018,07,17,10,22,22.40
2018,07,17,10,23,22.40
2018,07,17,10,24,22.40
2018,07,17,10,25,22.40
2018,07,17,10,26,22.50
2018,07,17,10,27,22.50
2018,07,17,10,28,22.60
2018,07,17,10,29,22.60
2018,07,17,10,30,22.60
2018,07,17,10,31,22.60
2018,07,17,10,32,22.80
2018,07,17,10,33,22.90
2018,07,17,10,34,23.00
2018,07,17,10,35,23.10
2018,07,17,10,36,23.30
2018,07,17,10,37,23.30
2018,07,17,10,38,23.40
2018,07,17,10,39,23.50
2018,07,17,10,40,23.50
2018,07,17,10,41,23.50
2018,07,17,10,42,23.40
2018,07,17,10,43,23.30
2018,07,17,10,44,23.20
2018,07,17,10,45,23.10
2018,07,17,10,46,23.10
2018,07,17,10,47,23.00
2018,07,17,10,48,23.00
2018,07,17,10,49,23.00
2018,07,17,10,50,22.90
2018,07,17,10,51,22.80
2018,07,17,10,52,22.80
2018,07,17,10,53,22.80
2018,07,17,10,54,22.90
2018,07,17,10,55,22.90
2018,07,17,10,56,22.80
2018,07,17,10,57,22.80
2018,07,17,10,58,22.80
2018,07,17,10,59,22.90
2018,07,17,11,00,23.00
2018,07,17,11,01,23.10
2018,07,17,11,02,23.20
2018,07,17,11,03,23.30
2018,07,17,11,04,23.40
2018,07,17,11,05,23.40
2018,07,17,11,06,23.40
2018,07,17,11,07,23.40
2018,07,17,11,08,23.40
2018,07,17,11,09,23.50
2018,07,17,11,10,23.50
2018,07,17,11,11,23.50
2018,07,17,11,12,23.50
2018,07,17,11,13,23.50
2018,07,17,11,14,23.50
2018,07,17,11,15,23.50
2018,07,17,11,16,23.50
2018,07,17,11,17,23.60
2018,07,17,11,18,23.60
2018,07,17,11,19,23.70
2018,07,17,11,20,23.70
2018,07,17,11,21,23.70
2018,07,17,11,22,23.70
2018,07,17,11,23,23.70
2018,07,17,11,24,23.70
2018,07,17,11,25,23.70
2018,07,17,11,26,23.70
2018,07,17,11,27,23.70
2018,07,17,11,28,23.80
2018,07,17,11,29,23.80
2018,07,17,11,30,23.80
2018,07,17,11,31,23.70
2018,07,17,11,32,23.50
2018,07,17,11,33,23.30
2018,07,17,11,34,23.10
2018,07,17,11,35,22.90
2018,07,17,11,36,22.80
2018,07,17,11,37,22.70
2018,07,17,11,38,22.70
2018,07,17,11,39,22.70
2018,07,17,11,40,22.80
2018,07,17,11,41,22.90
2018,07,17,11,42,23.00
2018,07,17,11,43,23.10
2018,07,17,11,44,23.30
2018,07,17,11,45,23.50
2018,07,17,11,46,23.60
2018,07,17,11,47,23.80
2018,07,17,11,48,23.90
2018,07,17,11,49,24.00
2018,07,17,11,50,24.00
2018,07,17,11,51,24.00
2018,07,17,11,52,24.10
2018,07,17,11,53,24.10
2018,07,17,11,54,24.10
2018,07,17,11,55,24.20
2018,07,17,11,56,24.20
2018,07,17,11,57,24.20
2018,07,17,11,58,24.30
2018,07,17,11,59,24.30
2018,07,17,12,00,24.20
2018,07,17,12,01,24.20
2018,07,17,12,02,24.20
2018,07,17,12,03,24.30
2018,07,17,12,04,24.40
2018,07,17,12,05,24.50
2018,07,17,12,06,24.50
2018,07,17,12,07,24.50
2018,07,17,12,08,24.50
2018,07,17,12,09,24.60
2018,07,17,12,10,24.70
2018,07,17,12,11,24.70
2018,07,17,12,12,24.70
2018,07,17,12,13,24.70
2018,07,17,12,14,24.70
2018,07,17,12,15,24.70
2018,07,17,12,16,24.60
2018,07,17,12,17,24.60
2018,07,17,12,18,24.70
2018,07,17,12,19,24.80
2018,07,17,12,20,24.90
2018,07,17,12,21,25.00
2018,07,17,12,22,25.00
2018,07,17,12,23,25.10
2018,07,17,12,24,25.20
2018,07,17,12,25,25.20
2018,07,17,12,26,25.30
2018,07,17,12,27,25.40
2018,07,17,12,28,25.50
2018,07,17,12,29,25.60
2018,07,17,12,30,25.70
2018,07,17,12,31,25.70
2018,07,17,12,32,25.60
2018,07,17,12,33,25.40
2018,07,17,12,34,25.20
2018,07,17,12,35,25.00
2018,07,17,12,36,24.80
2018,07,17,12,37,24.60
2018,07,17,12,38,24.40
2018,07,17,12,39,24.30
2018,07,17,12,40,24.30
2018,07,17,12,41,24.30
2018,07,17,12,42,24.30
2018,07,17,12,43,24.50
2018,07,17,12,44,24.60
2018,07,17,12,45,24.70
2018,07,17,12,46,24.80
2018,07,17,12,47,24.90
2018,07,17,12,48,25.00
2018,07,17,12,49,25.10
2018,07,17,12,50,25.20
2018,07,17,12,51,25.20
2018,07,17,12,52,25.10
2018,07,17,12,53,24.90
2018,07,17,12,54,24.80
2018,07,17,12,55,24.70
2018,07,17,12,56,24.80
2018,07,17,12,57,24.80
2018,07,17,12,58,24.90
2018,07,17,12,59,24.90
2018,07,17,13,00,25.00
2018,07,17,13,01,25.00
2018,07,17,13,02,25.10
2018,07,17,13,03,25.10
2018,07,17,13,04,25.10
2018,07,17,13,05,25.00
2018,07,17,13,06,24.90
2018,07,17,13,07,24.80
2018,07,17,13,08,24.90
2018,07,17,13,09,25.00
2018,07,17,13,10,25.00
2018,07,17,13,11,25.10
2018,07,17,13,12,25.00
2018,07,17,13,13,24.90
2018,07,17,13,14,24.80
2018,07,17,13,15,24.70
2018,07,17,13,16,24.70
2018,07,17,13,17,24.80
2018,07,17,13,18,24.90
2018,07,17,13,19,25.00
2018,07,17,13,20,25.10
2018,07,17,13,21,25.20
2018,07,17,13,22,25.20
2018,07,17,13,23,25.20
2018,07,17,13,24,25.30
2018,07,17,13,25,25.50
2018,07,17,13,26,25.60
2018,07,17,13,27,25.70
2018,07,17,13,28,25.80
2018,07,17,13,29,26.00
2018,07,17,13,30,26.10
2018,07,17,13,31,26.20
2018,07,17,13,32,26.20
2018,07,17,13,33,26.20
2018,07,17,13,34,26.20
2018,07,17,13,35,26.20
2018,07,17,13,36,26.10
2018,07,17,13,37,26.00
2018,07,17,13,38,25.90
2018,07,17,13,39,25.90
2018,07,17,13,40,25.80
2018,07,17,13,41,25.70
2018,07,17,13,42,25.70
2018,07,17,13,43,25.70
2018,07,17,13,44,25.70
2018,07,17,13,45,25.80
2018,07,17,13,46,25.80
2018,07,17,13,47,25.80
2018,07,17,13,48,25.80
2018,07,17,13,49,25.80
2018,07,17,13,50,25.80
2018,07,17,13,51,25.80
2018,07,17,13,52,25.80
2018,07,17,13,53,25.80
2018,07,17,13,54,25.70
2018,07,17,13,55,25.70
2018,07,17,13,56,25.70
2018,07,17,13,57,25.60
2018,07,17,13,58,25.60
2018,07,17,13,59,25.60
2018,07,17,14,00,25.60
2018,07,17,14,01,25.60
2018,07,17,14,02,25.50
2018,07,17,14,03,25.50
2018,07,17,14,04,25.50
2018,07,17,14,05,25.50
2018,07,17,14,06,25.50
2018,07,17,14,07,25.50
2018,07,17,14,08,25.60
2018,07,17,14,09,25.60
2018,07,17,14,10,25.60
2018,07,17,14,11,25.70
2018,07,17,14,12,25.70
2018,07,17,14,13,25.80
2018,07,17,14,14,25.80
2018,07,17,14,15,25.90
2018,07,17,14,16,26.10
2018,07,17,14,17,26.30
2018,07,17,14,18,26.40
2018,07,17,14,19,26.40
2018,07,17,14,20,26.40
2018,07,17,14,21,26.40
2018,07,17,14,22,26.30
2018,07,17,14,23,26.30
2018,07,17,14,24,26.20
2018,07,17,14,25,26.10
2018,07,17,14,26,26.00
2018,07,17,14,27,25.90
2018,07,17,14,28,25.80
2018,07,17,14,29,25.70
2018,07,17,14,30,25.70
2018,07,17,14,31,25.70
2018,07,17,14,32,25.80
2018,07,17,14,33,25.80
2018,07,17,14,34,25.90
2018,07,17,14,35,26.00
2018,07,17,14,36,25.90
2018,07,17,14,37,26.00
2018,07,17,14,38,26.00
2018,07,17,14,39,26.00
2018,07,17,14,40,26.10
2018,07,17,14,41,26.10
2018,07,17,14,42,26.10
2018,07,17,14,43,26.00
2018,07,17,14,44,25.90
2018,07,17,14,45,25.90
2018,07,17,14,46,26.00
2018,07,17,14,47,26.00
2018,07,17,14,48,26.00
2018,07,17,14,49,26.00
2018,07,17,14,50,26.00
2018,07,17,14,51,26.00
2018,07,17,14,52,26.10
2018,07,17,14,53,26.20
2018,07,17,14,54,26.30
2018,07,17,14,55,26.30
2018,07,17,14,56,26.30
2018,07,17,14,57,26.30
2018,07,17,14,58,26.30
2018,07,17,14,59,26.30
2018,07,17,15,00,26.30
2018,07,17,15,01,26.30
2018,07,17,15,02,26.30
2018,07,17,15,03,26.30
2018,07,17,15,04,26.30
2018,07,17,15,05,26.20
2018,07,17,15,06,26.20
2018,07,17,15,07,26.20
2018,07,17,15,08,26.30
2018,07,17,15,09,26.30
2018,07,17,15,10,26.40
2018,07,17,15,11,26.50
2018,07,17,15,12,26.60
2018,07,17,15,13,26.60
2018,07,17,15,14,26.70
2018,07,17,15,15,26.70
2018,07,17,15,16,26.70
2018,07,17,15,17,26.80
2018,07,17,15,18,26.80
2018,07,17,15,19,26.90
2018,07,17,15,20,26.90
2018,07,17,15,21,26.90
2018,07,17,15,22,26.90
2018,07,17,15,23,26.90
2018,07,17,15,24,26.80
2018,07,17,15,25,26.80
2018,07,17,15,26,26.70
2018,07,17,15,27,26.70
2018,07,17,15,28,26.80
2018,07,17,15,29,26.80
2018,07,17,15,30,26.80
2018,07,17,15,31,26.90
2018,07,17,15,32,26.90
2018,07,17,15,33,26.90
2018,07,17,15,34,26.90
2018,07,17,15,35,26.90
2018,07,17,15,36,27.00
2018,07,17,15,37,27.00
2018,07,17,15,38,27.00
2018,07,17,15,39,27.10
2018,07,17,15,40,27.20
2018,07,17,15,41,27.30
2018,07,17,15,42,27.40
2018,07,17,15,43,27.40
2018,07,17,15,44,27.40
2018,07,17,15,45,27.40
2018,07,17,15,46,27.40
2018,07,17,15,47,27.40
2018,07,17,15,48,27.30
2018,07,17,15,49,27.20
2018,07,17,15,50,27.00
2018,07,17,15,51,26.90
2018,07,17,15,52,27.00
2018,07,17,15,53,27.10
2018,07,17,15,54,27.10
2018,07,17,15,55,27.20
2018,07,17,15,56,27.10
2018,07,17,15,57,27.20
2018,07,17,15,58,27.20
2018,07,17,15,59,27.10
2018,07,17,16,00,27.10
2018,07,17,16,01,27.10
2018,07,17,16,02,27.00
2018,07,17,16,03,27.00
2018,07,17,16,04,27.10
2018,07,17,16,05,27.20
2018,07,17,16,06,27.30
2018,07,17,16,07,27.30
2018,07,17,16,08,27.30
2018,07,17,16,09,27.30
2018,07,17,16,10,27.20
2018,07,17,16,11,27.10
2018,07,17,16,12,27.10
2018,07,17,16,13,27.10
2018,07,17,16,14,27.00
2018,07,17,16,15,27.00
2018,07,17,16,16,27.10
2018,07,17,16,17,27.10
2018,07,17,16,18,27.10
2018,07,17,16,19,27.10
2018,07,17,16,20,27.10
2018,07,17,16,21,27.10
2018,07,17,16,22,27.20
2018,07,17,16,23,27.30
2018,07,17,16,24,27.50
2018,07,17,16,25,27.50
2018,07,17,16,26,27.60
2018,07,17,16,27,27.60
2018,07,17,16,28,27.50
2018,07,17,16,29,27.50
2018,07,17,16,30,27.40
2018,07,17,16,31,27.40
2018,07,17,16,32,27.50
2018,07,17,16,33,27.60
2018,07,17,16,34,27.70
2018,07,17,16,35,27.70
2018,07,17,16,36,27.70
2018,07,17,16,37,27.70
2018,07,17,16,38,27.70
2018,07,17,16,39,27.60
2018,07,17,16,40,27.50
2018,07,17,16,41,27.40
2018,07,17,16,42,27.40
2018,07,17,16,43,27.50
2018,07,17,16,44,27.60
2018,07,17,16,45,27.60
2018,07,17,16,46,27.50
2018,07,17,16,47,27.40
2018,07,17,16,48,27.40
2018,07,17,16,49,27.40
2018,07,17,16,50,27.40
2018,07,17,16,51,27.40
2018,07,17,16,52,27.40
2018,07,17,16,53,27.40
2018,07,17,16,54,27.40
2018,07,17,16,55,27.40
2018,07,17,16,56,27.40
2018,07,17,16,57,27.40
2018,07,17,16,58,27.50
2018,07,17,16,59,27.50
2018,07,17,17,00,27.60
2018,07,17,17,01,27.70
2018,07,17,17,02,27.70
2018,07,17,17,03,27.70
2018,07,17,17,04,27.70
2018,07,17,17,05,27.70
2018,07,17,17,06,27.70
2018,07,17,17,07,27.70
2018,07,17,17,08,27.70
2018,07,17,17,09,27.60
2018,07,17,17,10,27.60
2018,07,17,17,11,27.50
2018,07,17,17,12,27.50
2018,07,17,17,13,27.40
2018,07,17,17,14,27.40
2018,07,17,17,15,27.40
2018,07,17,17,16,27.30
2018,07,17,17,17,27.30
2018,07,17,17,18,27.30
2018,07,17,17,19,27.30